Location: *
(41.3833°S, 177.8333°W)
Time: 02:08:52
(UTC+00:00)

EXPRESS MD2 - Pass Details

Date: 01 April 2020
Orbit: 263 x 4029 km, 49.9° (Epoch: 05 June)

Event Time Altitude Azimuth Distance (km) Brightness Sun altitude
Exits shadow 16:43:28 28° 242° (WSW) 1,022 4.2 -16.6°
Maximum altitude 16:45:24 83° 327° (NNW) 664 3.6 -16.3°
Drops below altitude 10° 16:52:08 10° 54° (NE) 3,097 7.8 -15.0°
Sets 16:56:11 0° 54° (NE) 4,703 8.8 -14.3°
